User: anonymous   Login
Location: Newark
(5.8900°S, 42.6378°W)
Time: 00:14:03
(UTC+00:00)
Language:

AO-7 - Orbit

View from above orbital plane
View from above orbital plane
View from above satellite
View from above satellite

Ground track
Ground track

The orbit data is extracted from the following two-line orbital elements,

1  7530U 74089B   19325.73173906 -.00000028  00000-0  10971-3 0  9991
2  7530 101.7684 291.9147 0012505  46.4941  76.4271 12.53640843 60074
Epoch (UTC): 21 November 2019 17:33:42
Eccentricity: 0.0012505
inclination: 101.7684°
perigee height: 1439 km
apogee height: 1459 km
right ascension of ascending node: 291.9147°
argument of perigee: 46.4941°
revolutions per day: 12.53640843
mean anomaly at epoch: 76.4271°
orbit number at epoch: 6007

The dashed part of the orbit path shows where the satellite is in the earth's shadow,  

DLR